Powrót do katalogu

COSMOS 831

AktywnyNawigacjaLEO
NORAD 8895·PAYLOAD·🇷🇺 Russia

Wystrzelony Jun 15, 1976 z Plesetsk Cosmodrome

Loading…

Następne Przeloty (najbliższe 24 godziny)

TLE

ŚwieżeSource: Space-Track

Epoka: Sep 14, 2026, 06:38 UTC

1 08895U 76054G   26257.27680654 -.00000018  00000-0 -19037-4 0  9997
2 08895  73.9973  89.6670 0020753 359.4906 111.1163 12.43748967281375

Śledź COSMOS 831 w czasie rzeczywistym z AllMySat

Download on the App Store